Flag for Uruguay Weather past 2 weeks in Melo, Uruguay

Now
73 °F

Sunny.


Feels Like: 68 °F
Forecast: 67 / 86 °F
Wind: 6 mph from West

Location: Pelotas Airport

Current Time: Feb 27, 2015 at 9:56:46 AM

Latest Report: Feb 27, 2015 at 9:00 AM


Visibility: 10 mi

Pressure: 29.83 "Hg

Humidity: 100%

Dew point: 73 °F

Location of MeloLocation

Historic Weather in Melo — Graph

°F

Melo temperature yesterday

Maximum temperature yesterday: 84 °F (at 3:00 PM)
Minimum temperature yesterday: 72 °F (at 5:00 AM)
Average temperature yesterday: 76 °F

Past Weeks' High & Low Weather Summary

 TemperatureHumidityPressure
High90 °F (Feb 12, 6:00 PM)100% (Feb 12, 10:00 PM)30.12 "Hg (Feb 12, 10:00 PM)
Low64 °F (Feb 14, 5:00 AM)45% (Feb 14, 4:00 PM)29.65 "Hg (Feb 19, 1:00 PM)
Average75 °F85%29.94 "Hg
* Reported Feb 12 9:00 AM — Feb 27 9:00 AM, Melo, Weather by CustomWeather, © 2015

Note: Actual official high and low records may vary slightly from our data, if they occured in-between our weather recording intervals... More about our weather records

Advertising

Melo weather history for previous 24 hours

 ConditionsComfort  
Time TempWeatherWind HumidityBarometerVisibility
9:00 AM
Fri, Feb 27
73 °FSunny.6 mph100%29.83 "Hg10 mi
8:00 AM72 °FSunny.6 mph100%29.80 "Hg10 mi
7:00 AM72 °FSunny.5 mph100%29.80 "Hg10 mi
6:00 AM70 °FClear.6 mph100%29.77 "Hg10 mi
5:00 AM72 °FPassing clouds.7 mph100%29.77 "HgN/A
4:00 AM72 °FClear.3 mph100%29.77 "Hg10 mi
3:00 AM72 °FClear.2 mph100%29.77 "Hg10 mi
2:00 AM72 °FClear.No wind100%29.77 "Hg10 mi
1:00 AM72 °FClear.3 mph100%29.80 "Hg10 mi
12:00 AM73 °FPassing clouds.5 mph100%29.80 "HgN/A
11:00 PM
Thu, Feb 26
73 °FClear.3 mph100%29.80 "Hg10 mi
10:00 PM73 °FOvercast.5 mph100%29.80 "HgN/A
9:00 PM75 °FPassing clouds.5 mph94%29.83 "HgN/A
8:00 PM77 °FPassing clouds.7 mph89%29.80 "HgN/A
7:00 PM79 °FBroken clouds.6 mph84%29.80 "HgN/A
6:00 PM82 °FScattered clouds.2 mph70%29.80 "HgN/A
5:00 PM82 °FPartly sunny.6 mph70%29.83 "HgN/A
4:00 PM82 °FPartly sunny.5 mph74%29.83 "HgN/A
3:00 PM84 °FBroken clouds.5 mph66%29.86 "HgN/A
2:00 PM82 °FBroken clouds.7 mph70%29.86 "HgN/A
1:00 PM82 °FBroken clouds.6 mph74%29.89 "HgN/A
12:00 PM79 °FBroken clouds.3 mph89%29.92 "HgN/A
11:00 AM77 °FPartly sunny.3 mph100%29.92 "HgN/A
10:00 AM75 °FPartly sunny.3 mph100%29.92 "HgN/A
9:00 AM73 °FPartly sunny.3 mph100%29.92 "HgN/A
Weather by CustomWeather, © 2015

See weather overviewHow to use our weather pages